IKS7011 SBBR-SBFZ

Flight info

Callsign IKS7011
Flight time 2h 11m
Altitude 39000
Route ESBU6A EPDEP UZ60 DOTKU DOTK1A
Aircraft B738/M-SDE2E3FGHIRWXY/LB1

Departure

Time 2026-05-08 21:41
Airport Presidente Juscelino Kubitschek International Airport (SBBR)

Arrival

Time 2026-05-08 23:52
Airport Pinto Martins International Airport (SBFZ)
Time Latitude Longitude Altitude Speed Heading
2026-05-08 20:52 -15.86846 -47.91787 3464 ft 0 kts 356°
2026-05-08 21:29 -15.86868 -47.91787 3464 ft 4 kts
2026-05-08 21:29 -15.86893 -47.91794 3464 ft 4 kts 33°
2026-05-08 21:29 -15.86909 -47.91812 3464 ft 3 kts 83°
2026-05-08 21:30 -15.86909 -47.91820 3464 ft 0 kts 86°
2026-05-08 21:33 -15.86908 -47.91803 3462 ft 6 kts 86°
2026-05-08 21:33 -15.86905 -47.91753 3464 ft 7 kts 86°
2026-05-08 21:33 -15.86901 -47.91701 3464 ft 7 kts 86°
2026-05-08 21:34 -15.86898 -47.91649 3462 ft 7 kts 86°
2026-05-08 21:34 -15.86875 -47.91610 3464 ft 7 kts 20°
2026-05-08 21:34 -15.86827 -47.91609 3463 ft 7 kts 356°
2026-05-08 21:34 -15.86780 -47.91612 3463 ft 7 kts 356°
2026-05-08 21:35 -15.86733 -47.91615 3463 ft 7 kts 356°
2026-05-08 21:35 -15.86688 -47.91618 3464 ft 6 kts 356°
2026-05-08 21:35 -15.86644 -47.91621 3464 ft 6 kts 356°
2026-05-08 21:35 -15.86600 -47.91625 3464 ft 6 kts 356°
2026-05-08 21:36 -15.86557 -47.91627 3464 ft 6 kts 356°
2026-05-08 21:36 -15.86516 -47.91630 3463 ft 6 kts 356°
2026-05-08 21:36 -15.86485 -47.91655 3463 ft 6 kts 294°
2026-05-08 21:36 -15.86476 -47.91698 3464 ft 6 kts 282°
2026-05-08 21:37 -15.86480 -47.91758 3464 ft 10 kts 288°
2026-05-08 21:37 -15.86500 -47.91848 3463 ft 16 kts 266°
2026-05-08 21:37 -15.86508 -47.91983 3462 ft 22 kts 266°
2026-05-08 21:37 -15.86517 -47.92152 3461 ft 23 kts 266°
2026-05-08 21:38 -15.86527 -47.92317 3460 ft 23 kts 266°
2026-05-08 21:38 -15.86536 -47.92476 3461 ft 22 kts 266°
2026-05-08 21:38 -15.86546 -47.92632 3460 ft 21 kts 266°
2026-05-08 21:38 -15.86506 -47.92691 3465 ft 30 kts 43°
2026-05-08 21:39 -15.86440 -47.92715 3466 ft 16 kts 305°
2026-05-08 21:39 -15.86397 -47.92742 3464 ft 6 kts
2026-05-08 21:39 -15.86357 -47.92728 3463 ft 6 kts 45°
2026-05-08 21:39 -15.86352 -47.92684 3464 ft 7 kts 92°
2026-05-08 21:40 -15.86336 -47.92426 3466 ft 71 kts 86°
2026-05-08 21:40 -15.86288 -47.91675 3466 ft 136 kts 86°
2026-05-08 21:40 -15.86212 -47.90508 3481 ft 186 kts 86°
2026-05-08 21:41 -15.86032 -47.87704 5044 ft 188 kts 86°
2026-05-08 21:41 -15.85948 -47.86344 5759 ft 201 kts 86°
2026-05-08 21:41 -15.85854 -47.84789 5972 ft 228 kts 86°
2026-05-08 21:41 -15.85750 -47.83047 6168 ft 253 kts 86°
2026-05-08 21:42 -15.85634 -47.81132 6441 ft 276 kts 86°
2026-05-08 21:42 -15.85464 -47.79118 7162 ft 283 kts 77°
2026-05-08 21:42 -15.84614 -47.77285 7984 ft 286 kts 49°
2026-05-08 21:42 -15.83094 -47.76003 8791 ft 288 kts 28°
2026-05-08 21:43 -15.81250 -47.75159 9548 ft 293 kts 14°
2026-05-08 21:43 -15.79218 -47.75209 10307 ft 297 kts 342°
2026-05-08 21:43 -15.77276 -47.76109 10710 ft 317 kts 333°
2026-05-08 21:43 -15.75246 -47.77202 10896 ft 340 kts 333°
2026-05-08 21:44 -15.73077 -47.78321 11324 ft 353 kts 334°
2026-05-08 21:44 -15.70834 -47.79394 12004 ft 356 kts 341°
2026-05-08 21:44 -15.68417 -47.79771 12739 ft 357 kts
2026-05-08 21:44 -15.66007 -47.79156 13480 ft 359 kts 24°
2026-05-08 21:45 -15.63900 -47.77741 14117 ft 363 kts 40°
2026-05-08 21:45 -15.61971 -47.76033 14756 ft 367 kts 41°
2026-05-08 21:45 -15.60046 -47.74271 15373 ft 371 kts 41°
2026-05-08 21:45 -15.58102 -47.72478 15995 ft 375 kts 41°
2026-05-08 21:46 -15.56159 -47.70693 16588 ft 378 kts 41°
2026-05-08 21:46 -15.54166 -47.68873 17169 ft 382 kts 41°
2026-05-08 21:46 -15.52158 -47.67049 17725 ft 385 kts 41°
2026-05-08 21:46 -15.50148 -47.65232 18261 ft 388 kts 41°
2026-05-08 21:47 -15.48106 -47.63389 18789 ft 392 kts 41°
2026-05-08 21:47 -15.46030 -47.61519 19290 ft 395 kts 41°
2026-05-08 21:47 -15.43943 -47.59640 19749 ft 399 kts 41°
2026-05-08 21:47 -15.41826 -47.57737 20237 ft 402 kts 41°
2026-05-08 21:48 -15.39702 -47.55829 20695 ft 406 kts 41°
2026-05-08 21:48 -15.37583 -47.53926 21140 ft 409 kts 41°
2026-05-08 21:48 -15.35418 -47.51982 21574 ft 412 kts 41°
2026-05-08 21:48 -15.33243 -47.50030 22001 ft 415 kts 41°
2026-05-08 21:49 -15.31051 -47.48063 22415 ft 418 kts 41°
2026-05-08 21:49 -15.28843 -47.46081 22814 ft 421 kts 41°
2026-05-08 21:49 -15.26615 -47.44081 23207 ft 424 kts 41°
2026-05-08 21:49 -15.24366 -47.42064 23579 ft 427 kts 41°
2026-05-08 21:50 -15.22111 -47.40041 23937 ft 430 kts 41°
2026-05-08 21:50 -15.19861 -47.38025 24291 ft 433 kts 41°
2026-05-08 21:50 -15.17573 -47.35974 24631 ft 435 kts 41°
2026-05-08 21:50 -15.15277 -47.33916 24965 ft 438 kts 41°
2026-05-08 21:51 -15.12957 -47.31838 25307 ft 440 kts 41°
2026-05-08 21:51 -15.10655 -47.29777 25629 ft 443 kts 41°
2026-05-08 21:51 -15.08315 -47.27683 25970 ft 445 kts 41°
2026-05-08 21:51 -15.05963 -47.25578 26287 ft 447 kts 41°
2026-05-08 21:52 -15.03602 -47.23466 26583 ft 450 kts 41°
2026-05-08 21:52 -15.01229 -47.21344 26894 ft 452 kts 41°
2026-05-08 21:52 -14.98872 -47.19237 27189 ft 454 kts 41°
2026-05-08 21:52 -14.96470 -47.17091 27485 ft 456 kts 41°
2026-05-08 21:53 -14.94058 -47.14936 27779 ft 458 kts 40°
2026-05-08 21:53 -14.91635 -47.12771 28057 ft 460 kts 40°
2026-05-08 21:53 -14.89202 -47.10598 28340 ft 462 kts 40°
2026-05-08 21:53 -14.86763 -47.08421 28605 ft 464 kts 40°
2026-05-08 21:54 -14.84341 -47.06258 28860 ft 466 kts 40°
2026-05-08 21:54 -14.81875 -47.04057 29109 ft 468 kts 40°
2026-05-08 21:54 -14.79394 -47.01844 29360 ft 470 kts 40°
2026-05-08 21:54 -14.76900 -46.99638 29594 ft 472 kts 39°
2026-05-08 21:55 -14.74360 -46.97539 29820 ft 474 kts 37°
2026-05-08 21:55 -14.71733 -46.95462 30065 ft 475 kts 37°
2026-05-08 21:55 -14.69087 -46.93392 30294 ft 477 kts 37°
2026-05-08 21:56 -14.63802 -46.89216 30714 ft 480 kts 37°
2026-05-08 21:56 -14.61144 -46.87090 30934 ft 482 kts 37°
2026-05-08 21:56 -14.58528 -46.84990 31233 ft 481 kts 37°
2026-05-08 21:56 -14.55884 -46.82868 31583 ft 479 kts 37°
2026-05-08 21:57 -14.53253 -46.80760 31902 ft 479 kts 37°
2026-05-08 21:57 -14.50615 -46.78651 32176 ft 479 kts 37°
2026-05-08 21:57 -14.47981 -46.76545 32450 ft 479 kts 37°
2026-05-08 21:57 -14.45330 -46.74427 32741 ft 479 kts 37°
2026-05-08 21:58 -14.42727 -46.72349 33033 ft 478 kts 37°
2026-05-08 21:58 -14.40089 -46.70241 33344 ft 477 kts 37°
2026-05-08 21:58 -14.37488 -46.68162 33621 ft 477 kts 37°
2026-05-08 21:58 -14.34857 -46.66061 33899 ft 477 kts 37°
2026-05-08 21:59 -14.32234 -46.63967 34174 ft 477 kts 37°
2026-05-08 21:59 -14.29606 -46.61871 34440 ft 477 kts 37°
2026-05-08 21:59 -14.26979 -46.59775 34717 ft 476 kts 37°
2026-05-08 21:59 -14.24355 -46.57681 34970 ft 476 kts 37°
2026-05-08 22:00 -14.21730 -46.55588 35206 ft 476 kts 37°
2026-05-08 22:00 -14.19140 -46.53524 35458 ft 476 kts 37°
2026-05-08 22:00 -14.16524 -46.51440 35714 ft 475 kts 37°
2026-05-08 22:00 -14.13892 -46.49343 35948 ft 475 kts 37°
2026-05-08 22:01 -14.11301 -46.47279 36159 ft 475 kts 37°
2026-05-08 22:01 -14.08685 -46.45195 36366 ft 475 kts 37°
2026-05-08 22:01 -14.06061 -46.43106 36566 ft 476 kts 37°
2026-05-08 22:01 -14.03424 -46.41006 36775 ft 476 kts 37°
2026-05-08 22:02 -14.00810 -46.38926 37167 ft 471 kts 37°
2026-05-08 22:02 -13.98239 -46.36880 37638 ft 464 kts 37°
2026-05-08 22:02 -13.95717 -46.34873 37850 ft 464 kts 37°
2026-05-08 22:03 -13.90574 -46.30784 38006 ft 469 kts 37°
2026-05-08 22:03 -13.87983 -46.28725 38202 ft 468 kts 37°
2026-05-08 22:03 -13.85410 -46.26681 38411 ft 467 kts 37°
2026-05-08 22:03 -13.82835 -46.24636 38560 ft 467 kts 37°
2026-05-08 22:04 -13.80288 -46.22614 38658 ft 468 kts 37°
2026-05-08 22:04 -13.77710 -46.20567 38811 ft 468 kts 37°
2026-05-08 22:04 -13.75128 -46.18518 38970 ft 467 kts 37°
2026-05-08 22:05 -13.69956 -46.14415 39061 ft 471 kts 37°
2026-05-08 22:05 -13.64788 -46.10317 39060 ft 469 kts 37°
2026-05-08 22:06 -13.59622 -46.06223 39060 ft 467 kts 37°
2026-05-08 22:06 -13.54481 -46.02151 39053 ft 465 kts 37°
2026-05-08 22:07 -13.49386 -45.98117 39058 ft 464 kts 37°
2026-05-08 22:07 -13.44256 -45.94059 39054 ft 463 kts 37°
2026-05-08 22:08 -13.39145 -45.90018 39057 ft 463 kts 37°
2026-05-08 22:08 -13.34072 -45.86009 39057 ft 463 kts 37°
2026-05-08 22:09 -13.28942 -45.81957 39058 ft 464 kts 37°
2026-05-08 22:09 -13.23835 -45.77926 39050 ft 465 kts 37°
2026-05-08 22:10 -13.18679 -45.73855 39048 ft 466 kts 37°
2026-05-08 22:10 -13.13524 -45.69788 39048 ft 467 kts 37°
2026-05-08 22:11 -13.08388 -45.65737 39047 ft 468 kts 37°
2026-05-08 22:11 -13.03213 -45.61663 39050 ft 469 kts 37°
2026-05-08 22:12 -12.98024 -45.57586 39044 ft 469 kts 37°
2026-05-08 22:12 -12.92876 -45.53539 39047 ft 469 kts 37°
2026-05-08 22:13 -12.87679 -45.49455 39043 ft 468 kts 37°
2026-05-08 22:13 -12.82505 -45.45389 39035 ft 468 kts 37°
2026-05-08 22:14 -12.77360 -45.41352 39037 ft 467 kts 37°
2026-05-08 22:14 -12.72222 -45.37321 39035 ft 466 kts 37°
2026-05-08 22:15 -12.67053 -45.33267 39038 ft 466 kts 37°
2026-05-08 22:15 -12.61937 -45.29255 39036 ft 465 kts 37°
2026-05-08 22:16 -12.56793 -45.25226 39035 ft 464 kts 37°
2026-05-08 22:16 -12.51686 -45.21233 39039 ft 464 kts 37°
2026-05-08 22:17 -12.46542 -45.17205 39028 ft 464 kts 37°
2026-05-08 22:17 -12.41435 -45.13208 39014 ft 464 kts 37°
2026-05-08 22:18 -12.36298 -45.09191 39026 ft 464 kts 37°
2026-05-08 22:18 -12.31181 -45.05191 39013 ft 464 kts 37°
2026-05-08 22:19 -12.26028 -45.01166 39015 ft 465 kts 37°
2026-05-08 22:19 -12.20878 -44.97144 39009 ft 466 kts 37°
2026-05-08 22:20 -12.15760 -44.93150 39027 ft 466 kts 37°
2026-05-08 22:20 -12.10596 -44.89122 39035 ft 466 kts 37°
2026-05-08 22:21 -12.05431 -44.85094 39028 ft 466 kts 37°
2026-05-08 22:21 -12.00297 -44.81093 39034 ft 466 kts 37°
2026-05-08 22:22 -11.95128 -44.77068 39030 ft 466 kts 37°
2026-05-08 22:22 -11.89981 -44.73063 39027 ft 466 kts 37°
2026-05-08 22:23 -11.84818 -44.69044 39027 ft 465 kts 37°
2026-05-08 22:23 -11.79680 -44.65050 39029 ft 465 kts 37°
2026-05-08 22:24 -11.74551 -44.61062 39032 ft 465 kts 37°
2026-05-08 22:24 -11.69388 -44.57047 39017 ft 465 kts 37°
2026-05-08 22:25 -11.65103 -44.53719 39030 ft 465 kts 37°
2026-05-08 22:25 -11.59114 -44.49069 39028 ft 465 kts 37°
2026-05-08 22:26 -11.54830 -44.45745 39031 ft 465 kts 37°
2026-05-08 22:26 -11.48836 -44.41097 39029 ft 465 kts 37°
2026-05-08 22:27 -11.44546 -44.37772 39027 ft 465 kts 37°
2026-05-08 22:27 -11.39382 -44.33768 39028 ft 465 kts 37°
2026-05-08 22:28 -11.34214 -44.29765 39029 ft 466 kts 37°
2026-05-08 22:28 -11.29071 -44.25784 39027 ft 466 kts 37°
2026-05-08 22:29 -11.23901 -44.21783 39029 ft 466 kts 37°
2026-05-08 22:29 -11.18734 -44.17784 39030 ft 466 kts 37°
2026-05-08 22:30 -11.13595 -44.13811 39026 ft 466 kts 37°
2026-05-08 22:30 -11.08429 -44.09819 39029 ft 466 kts 37°
2026-05-08 22:31 -11.03259 -44.05826 39026 ft 465 kts 37°
2026-05-08 22:31 -10.98132 -44.01866 39030 ft 465 kts 37°
2026-05-08 22:32 -10.92977 -43.97886 39027 ft 465 kts 37°
2026-05-08 22:32 -10.87825 -43.93911 39029 ft 465 kts 37°
2026-05-08 22:33 -10.82687 -43.89947 39027 ft 465 kts 37°
2026-05-08 22:33 -10.77532 -43.85972 39028 ft 464 kts 37°
2026-05-08 22:34 -10.72373 -43.81996 39029 ft 464 kts 37°
2026-05-08 22:34 -10.67253 -43.78056 39026 ft 464 kts 37°
2026-05-08 22:35 -10.62100 -43.74094 39030 ft 464 kts 37°
2026-05-08 22:35 -10.56944 -43.70130 39028 ft 463 kts 37°
2026-05-08 22:36 -10.51820 -43.66192 39027 ft 463 kts 37°
2026-05-08 22:36 -10.46669 -43.62231 39025 ft 463 kts 37°
2026-05-08 22:37 -10.41552 -43.58298 39020 ft 463 kts 37°
2026-05-08 22:37 -10.36403 -43.54346 39026 ft 463 kts 36°
2026-05-08 22:38 -10.31246 -43.50388 39028 ft 464 kts 37°
2026-05-08 22:38 -10.26091 -43.46432 39010 ft 464 kts 36°
2026-05-08 22:39 -10.20953 -43.42491 38997 ft 465 kts 36°
2026-05-08 22:39 -10.15809 -43.38549 39001 ft 465 kts 36°
2026-05-08 22:40 -10.10656 -43.34602 39003 ft 465 kts 36°
2026-05-08 22:40 -10.05490 -43.30646 39001 ft 465 kts 36°
2026-05-08 22:41 -10.00311 -43.26681 39007 ft 465 kts 36°
2026-05-08 22:41 -9.95174 -43.22750 39002 ft 465 kts 36°
2026-05-08 22:42 -9.90000 -43.18791 38995 ft 465 kts 36°
2026-05-08 22:42 -9.84857 -43.14857 38998 ft 464 kts 36°
2026-05-08 22:43 -9.79692 -43.10909 38998 ft 463 kts 36°
2026-05-08 22:43 -9.74559 -43.06986 38997 ft 463 kts 36°
2026-05-08 22:44 -9.69417 -43.03058 39003 ft 462 kts 36°
2026-05-08 22:44 -9.64304 -42.99154 39000 ft 461 kts 36°
2026-05-08 22:45 -9.59171 -42.95236 39003 ft 460 kts 36°
2026-05-08 22:45 -9.54049 -42.91330 39001 ft 460 kts 36°
2026-05-08 22:46 -9.48953 -42.87444 39002 ft 460 kts 36°
2026-05-08 22:46 -9.43841 -42.83544 38992 ft 459 kts 36°
2026-05-08 22:47 -9.38721 -42.79642 39000 ft 459 kts 36°
2026-05-08 22:47 -9.33649 -42.75778 38993 ft 459 kts 36°
2026-05-08 22:48 -9.28519 -42.71871 38983 ft 460 kts 36°
2026-05-08 22:48 -9.23419 -42.67989 38973 ft 461 kts 36°
2026-05-08 22:49 -9.18282 -42.64079 38972 ft 462 kts 36°
2026-05-08 22:49 -9.10590 -42.58227 38971 ft 462 kts 36°
2026-05-08 22:50 -9.05440 -42.54313 38975 ft 462 kts 36°
2026-05-08 22:50 -9.00297 -42.50404 38975 ft 462 kts 36°
2026-05-08 22:51 -8.95162 -42.46500 38981 ft 462 kts 36°
2026-05-08 22:51 -8.90055 -42.42623 38979 ft 461 kts 36°
2026-05-08 22:52 -8.84916 -42.38725 38984 ft 461 kts 36°
2026-05-08 22:52 -8.79780 -42.34830 38977 ft 461 kts 36°
2026-05-08 22:53 -8.74681 -42.30965 38984 ft 460 kts 36°
2026-05-08 22:53 -8.69544 -42.27069 38979 ft 460 kts 36°
2026-05-08 22:54 -8.64405 -42.23177 38984 ft 461 kts 36°
2026-05-08 22:54 -8.59306 -42.19311 38982 ft 461 kts 36°
2026-05-08 22:55 -8.54157 -42.15412 38982 ft 461 kts 36°
2026-05-08 22:55 -8.49054 -42.11547 38981 ft 461 kts 36°
2026-05-08 22:56 -8.43926 -42.07666 38979 ft 460 kts 36°
2026-05-08 22:56 -8.38782 -42.03774 38985 ft 460 kts 36°
2026-05-08 22:57 -8.33678 -41.99913 38983 ft 460 kts 36°
2026-05-08 22:57 -8.28541 -41.96029 38978 ft 460 kts 36°
2026-05-08 22:58 -8.23435 -41.92170 38981 ft 460 kts 36°
2026-05-08 22:58 -8.18288 -41.88281 38982 ft 460 kts 36°
2026-05-08 22:59 -8.13187 -41.84428 38979 ft 460 kts 36°
2026-05-08 22:59 -8.08059 -41.80556 38982 ft 460 kts 36°
2026-05-08 23:00 -8.02930 -41.76685 38977 ft 460 kts 36°
2026-05-08 23:00 -7.97830 -41.72837 38983 ft 459 kts 36°
2026-05-08 23:01 -7.92698 -41.68965 38980 ft 460 kts 36°
2026-05-08 23:01 -7.87564 -41.65093 38979 ft 460 kts 36°
2026-05-08 23:02 -7.82460 -41.61246 38983 ft 460 kts 36°
2026-05-08 23:02 -7.77322 -41.57372 38979 ft 460 kts 36°
2026-05-08 23:03 -7.72218 -41.53528 38984 ft 460 kts 36°
2026-05-08 23:03 -7.67077 -41.49655 38978 ft 460 kts 36°
2026-05-08 23:04 -7.61935 -41.45783 38983 ft 460 kts 36°
2026-05-08 23:04 -7.56815 -41.41929 38979 ft 460 kts 36°
2026-05-08 23:05 -7.51673 -41.38060 38993 ft 460 kts 36°
2026-05-08 23:05 -7.46573 -41.34223 39003 ft 460 kts 36°
2026-05-08 23:06 -7.41435 -41.30359 39001 ft 460 kts 36°
2026-05-08 23:06 -7.36299 -41.26498 38997 ft 460 kts 36°
2026-05-08 23:07 -7.31199 -41.22665 39002 ft 459 kts 36°
2026-05-08 23:07 -7.26073 -41.18812 38993 ft 459 kts 36°
2026-05-08 23:08 -7.20939 -41.14957 39002 ft 459 kts 36°
2026-05-08 23:08 -7.15805 -41.11100 38989 ft 460 kts 36°
2026-05-08 23:09 -7.10695 -41.07263 38987 ft 460 kts 36°
2026-05-08 23:09 -7.05548 -41.03403 38978 ft 460 kts 36°
2026-05-08 23:10 -7.00433 -40.99564 38981 ft 460 kts 36°
2026-05-08 23:10 -6.95291 -40.95706 38988 ft 460 kts 36°
2026-05-08 23:11 -6.90161 -40.91859 38989 ft 459 kts 36°
2026-05-08 23:11 -6.85067 -40.88039 38987 ft 459 kts 36°
2026-05-08 23:12 -6.79927 -40.84188 38990 ft 459 kts 36°
2026-05-08 23:12 -6.74828 -40.80366 38991 ft 459 kts 36°
2026-05-08 23:13 -6.69701 -40.76525 38987 ft 459 kts 36°
2026-05-08 23:13 -6.64579 -40.72691 38986 ft 459 kts 36°
2026-05-08 23:14 -6.60319 -40.69503 38993 ft 459 kts 36°
2026-05-08 23:14 -6.54364 -40.65046 38989 ft 459 kts 36°
2026-05-08 23:15 -6.50078 -40.61838 38990 ft 459 kts 36°
2026-05-08 23:15 -6.44951 -40.58002 38996 ft 459 kts 36°
2026-05-08 23:16 -6.39825 -40.54167 38991 ft 459 kts 36°
2026-05-08 23:16 -6.34704 -40.50337 38998 ft 459 kts 36°
2026-05-08 23:17 -6.29574 -40.46501 39002 ft 460 kts 36°
2026-05-08 23:17 -6.24467 -40.42683 38997 ft 460 kts 36°
2026-05-08 23:18 -6.19328 -40.38844 38990 ft 460 kts 36°
2026-05-08 23:18 -6.14188 -40.35003 38992 ft 460 kts 36°
2026-05-08 23:19 -6.09050 -40.31165 38992 ft 460 kts 36°
2026-05-08 23:19 -6.03911 -40.27327 38995 ft 460 kts 36°
2026-05-08 23:20 -5.98765 -40.23484 38995 ft 460 kts 36°
2026-05-08 23:20 -5.93616 -40.19643 38992 ft 460 kts 36°
2026-05-08 23:21 -5.88474 -40.15811 38993 ft 460 kts 36°
2026-05-08 23:21 -5.83363 -40.11999 38991 ft 460 kts 36°
2026-05-08 23:22 -5.78226 -40.08166 38993 ft 460 kts 36°
2026-05-08 23:22 -5.73086 -40.04333 38989 ft 460 kts 36°
2026-05-08 23:23 -5.67949 -40.00504 38996 ft 460 kts 36°
2026-05-08 23:23 -5.62804 -39.96670 38740 ft 465 kts 36°
2026-05-08 23:24 -5.60198 -39.94729 38227 ft 466 kts 36°
2026-05-08 23:24 -5.57602 -39.92794 37641 ft 464 kts 36°
2026-05-08 23:24 -5.55011 -39.90865 37057 ft 463 kts 36°
2026-05-08 23:24 -5.52431 -39.88942 36452 ft 462 kts 36°
2026-05-08 23:25 -5.49854 -39.87023 35834 ft 461 kts 36°
2026-05-08 23:25 -5.47277 -39.85104 35137 ft 462 kts 36°
2026-05-08 23:25 -5.44698 -39.83184 34591 ft 460 kts 35°
2026-05-08 23:25 -5.42140 -39.81279 34108 ft 456 kts 36°
2026-05-08 23:26 -5.39600 -39.79389 33627 ft 453 kts 35°
2026-05-08 23:26 -5.37081 -39.77513 33156 ft 449 kts 35°
2026-05-08 23:26 -5.34579 -39.75651 32671 ft 446 kts 35°
2026-05-08 23:26 -5.32089 -39.73797 32190 ft 443 kts 35°
2026-05-08 23:27 -5.29654 -39.71985 31728 ft 440 kts 36°
2026-05-08 23:27 -5.27204 -39.70162 31263 ft 437 kts 36°
2026-05-08 23:27 -5.24769 -39.68351 30804 ft 434 kts 35°
2026-05-08 23:27 -5.22346 -39.66547 30335 ft 431 kts 35°
2026-05-08 23:28 -5.19950 -39.64765 29876 ft 428 kts 35°
2026-05-08 23:28 -5.17561 -39.62988 29417 ft 425 kts 35°
2026-05-08 23:28 -5.15195 -39.61228 28942 ft 422 kts 36°
2026-05-08 23:28 -5.12847 -39.59482 28471 ft 419 kts 36°
2026-05-08 23:29 -5.10515 -39.57748 27998 ft 416 kts 36°
2026-05-08 23:29 -5.08201 -39.56027 27538 ft 413 kts 36°
2026-05-08 23:29 -5.05902 -39.54319 27075 ft 410 kts 36°
2026-05-08 23:29 -5.03620 -39.52623 26617 ft 407 kts 36°
2026-05-08 23:30 -5.01354 -39.50938 26145 ft 404 kts 36°
2026-05-08 23:30 -4.99097 -39.49261 25675 ft 401 kts 36°
2026-05-08 23:30 -4.96860 -39.47599 25221 ft 399 kts 36°
2026-05-08 23:30 -4.94639 -39.45948 24773 ft 396 kts 36°
2026-05-08 23:31 -4.92464 -39.44331 24317 ft 393 kts 36°
2026-05-08 23:31 -4.90275 -39.42704 23871 ft 390 kts 36°
2026-05-08 23:31 -4.88102 -39.41090 23424 ft 387 kts 36°
2026-05-08 23:31 -4.85946 -39.39488 22985 ft 384 kts 36°
2026-05-08 23:32 -4.83804 -39.37897 22549 ft 382 kts 36°
2026-05-08 23:32 -4.81676 -39.36317 22110 ft 379 kts 36°
2026-05-08 23:32 -4.79564 -39.34748 21680 ft 377 kts 36°
2026-05-08 23:32 -4.77460 -39.33186 21247 ft 374 kts 36°
2026-05-08 23:33 -4.75377 -39.31639 20819 ft 372 kts 36°
2026-05-08 23:33 -4.73306 -39.30102 20384 ft 369 kts 36°
2026-05-08 23:33 -4.71250 -39.28574 19968 ft 367 kts 36°
2026-05-08 23:33 -4.69207 -39.27057 19540 ft 364 kts 37°
2026-05-08 23:34 -4.67176 -39.25550 19119 ft 362 kts 37°
2026-05-08 23:34 -4.65158 -39.24052 18696 ft 360 kts 37°
2026-05-08 23:34 -4.63146 -39.22559 18281 ft 358 kts 37°
2026-05-08 23:34 -4.61174 -39.21094 17882 ft 356 kts 37°
2026-05-08 23:35 -4.59167 -39.19604 17456 ft 354 kts 37°
2026-05-08 23:35 -4.57196 -39.18141 17045 ft 352 kts 37°
2026-05-08 23:35 -4.55236 -39.16687 16634 ft 349 kts 37°
2026-05-08 23:35 -4.53313 -39.15260 16226 ft 347 kts 37°
2026-05-08 23:36 -4.51377 -39.13822 15822 ft 345 kts 37°
2026-05-08 23:36 -4.49454 -39.12394 15423 ft 343 kts 37°
2026-05-08 23:36 -4.47540 -39.10972 15025 ft 341 kts 37°
2026-05-08 23:36 -4.45643 -39.09562 14633 ft 338 kts 37°
2026-05-08 23:37 -4.43760 -39.08163 14236 ft 336 kts 37°
2026-05-08 23:37 -4.41888 -39.06773 13843 ft 334 kts 37°
2026-05-08 23:37 -4.40028 -39.05396 13444 ft 331 kts 37°
2026-05-08 23:37 -4.38083 -39.04163 13059 ft 330 kts 30°
2026-05-08 23:38 -4.36071 -39.03061 12670 ft 328 kts 29°
2026-05-08 23:38 -4.34062 -39.01983 12289 ft 327 kts 29°
2026-05-08 23:38 -4.32075 -39.00898 11911 ft 324 kts 30°
2026-05-08 23:38 -4.30105 -38.99804 11518 ft 322 kts 30°
2026-05-08 23:39 -4.28159 -38.98717 11135 ft 320 kts 30°
2026-05-08 23:39 -4.26218 -38.97632 10770 ft 318 kts 30°
2026-05-08 23:39 -4.24290 -38.96562 10412 ft 315 kts 30°
2026-05-08 23:39 -4.22404 -38.95518 10284 ft 305 kts 30°
2026-05-08 23:40 -4.20584 -38.94507 10141 ft 296 kts 30°
2026-05-08 23:40 -4.18806 -38.93523 10019 ft 288 kts 30°
2026-05-08 23:40 -4.17074 -38.92564 9799 ft 283 kts 30°
2026-05-08 23:40 -4.15378 -38.91623 9514 ft 282 kts 30°
2026-05-08 23:41 -4.13664 -38.90673 9223 ft 281 kts 30°
2026-05-08 23:41 -4.11958 -38.89728 8935 ft 279 kts 30°
2026-05-08 23:41 -4.10219 -38.88817 8618 ft 278 kts 24°
2026-05-08 23:41 -4.08398 -38.88199 8352 ft 275 kts 19°
2026-05-08 23:42 -4.06600 -38.87632 8052 ft 274 kts 19°
2026-05-08 23:42 -4.04790 -38.87039 7765 ft 273 kts 20°
2026-05-08 23:42 -4.02990 -38.86438 7478 ft 272 kts 20°
2026-05-08 23:42 -4.01201 -38.85838 7193 ft 271 kts 20°
2026-05-08 23:43 -3.99437 -38.85197 6907 ft 268 kts 28°
2026-05-08 23:43 -3.97879 -38.84186 6677 ft 267 kts 37°
2026-05-08 23:43 -3.96376 -38.83076 6431 ft 269 kts 37°
2026-05-08 23:43 -3.94861 -38.81968 6179 ft 269 kts 37°
2026-05-08 23:44 -3.93355 -38.80871 5926 ft 266 kts 37°
2026-05-08 23:44 -3.91857 -38.79792 5675 ft 264 kts 37°
2026-05-08 23:44 -3.90369 -38.78726 5436 ft 262 kts 36°
2026-05-08 23:44 -3.88890 -38.77681 5199 ft 258 kts 37°
2026-05-08 23:45 -3.87439 -38.76640 4966 ft 255 kts 37°
2026-05-08 23:45 -3.86000 -38.75616 4736 ft 253 kts 37°
2026-05-08 23:45 -3.84577 -38.74608 4549 ft 245 kts 36°
2026-05-08 23:45 -3.83210 -38.73636 4316 ft 237 kts 37°
2026-05-08 23:46 -3.81830 -38.72823 4132 ft 227 kts 20°
2026-05-08 23:46 -3.80326 -38.72436 3919 ft 219 kts 15°
2026-05-08 23:46 -3.78877 -38.72060 3712 ft 211 kts 16°
2026-05-08 23:46 -3.77484 -38.71688 3522 ft 203 kts 17°
2026-05-08 23:47 -3.76152 -38.71327 3354 ft 194 kts 17°
2026-05-08 23:47 -3.74880 -38.70968 3166 ft 186 kts 23°
2026-05-08 23:47 -3.73929 -38.70180 2986 ft 175 kts 59°
2026-05-08 23:47 -3.73534 -38.69064 2782 ft 171 kts 88°
2026-05-08 23:48 -3.73761 -38.67909 2632 ft 169 kts 105°
2026-05-08 23:48 -3.74050 -38.66772 2554 ft 169 kts 104°
2026-05-08 23:48 -3.74346 -38.65609 2334 ft 174 kts 104°
2026-05-08 23:48 -3.74651 -38.64459 2099 ft 171 kts 104°
2026-05-08 23:49 -3.74945 -38.63352 1888 ft 160 kts 104°
2026-05-08 23:49 -3.75226 -38.62294 1680 ft 156 kts 104°
2026-05-08 23:49 -3.75507 -38.61237 1475 ft 158 kts 104°
2026-05-08 23:49 -3.75789 -38.60178 1298 ft 155 kts 104°
2026-05-08 23:50 -3.76056 -38.59175 1090 ft 146 kts 104°
2026-05-08 23:50 -3.76314 -38.58203 875 ft 144 kts 104°
2026-05-08 23:50 -3.76567 -38.57249 677 ft 140 kts 104°
2026-05-08 23:50 -3.76817 -38.56314 500 ft 138 kts 105°
2026-05-08 23:51 -3.77066 -38.55388 304 ft 137 kts 105°
2026-05-08 23:51 -3.77303 -38.54477 136 ft 133 kts 105°
2026-05-08 23:51 -3.77529 -38.53625 85 ft 111 kts 104°
2026-05-08 23:51 -3.77677 -38.53087 76 ft 57 kts 105°
2026-05-08 23:52 -3.77756 -38.52788 75 ft 34 kts 105°
2026-05-08 23:52 -3.77792 -38.52657 70 ft 9 kts 105°
2026-05-08 23:52 -3.77829 -38.52612 70 ft 9 kts 178°
2026-05-08 23:52 -3.77870 -38.52655 74 ft 9 kts 243°
2026-05-08 23:53 -3.77897 -38.52710 74 ft 9 kts 244°
2026-05-08 23:53 -3.77914 -38.52766 75 ft 8 kts 272°
2026-05-08 23:53 -3.77900 -38.52821 71 ft 8 kts 285°
2026-05-08 23:53 -3.77885 -38.52875 73 ft 8 kts 285°
2026-05-08 23:54 -3.77871 -38.52926 76 ft 8 kts 285°
2026-05-08 23:54 -3.77856 -38.52981 73 ft 9 kts 285°
2026-05-08 23:54 -3.77841 -38.53042 71 ft 9 kts 284°
2026-05-08 23:55 -3.77802 -38.53193 75 ft 13 kts 285°
2026-05-08 23:55 -3.77775 -38.53290 75 ft 15 kts 285°
2026-05-08 23:55 -3.77759 -38.53353 80 ft 6 kts 284°
2026-05-08 23:55 -3.77749 -38.53393 80 ft 6 kts 284°
2026-05-08 23:56 -3.77737 -38.53437 81 ft 9 kts 285°
2026-05-08 23:56 -3.77713 -38.53525 80 ft 17 kts 285°
2026-05-08 23:56 -3.77682 -38.53639 86 ft 14 kts 285°
2026-05-08 23:56 -3.77659 -38.53725 85 ft 10 kts 281°
2026-05-08 23:57 -3.77678 -38.53788 86 ft 9 kts 240°
2026-05-08 23:57 -3.77712 -38.53843 84 ft 9 kts 239°
2026-05-08 23:57 -3.77728 -38.53902 87 ft 9 kts 276°
2026-05-08 23:57 -3.77712 -38.53961 86 ft 9 kts 286°
2026-05-08 23:58 -3.77698 -38.54010 84 ft 4 kts 284°
2026-05-08 23:58 -3.77697 -38.54037 89 ft 4 kts 243°
2026-05-08 23:58 -3.77723 -38.54044 84 ft 4 kts 185°
2026-05-08 23:58 -3.77750 -38.54050 84 ft 4 kts 195°
2026-05-08 23:59 -3.77765 -38.54054 88 ft 0 kts 195°
2026-05-08 23:59 -3.77773 -38.54056 87 ft 2 kts 195°
2026-05-08 23:59 -3.77776 -38.54057 86 ft 0 kts 195°